User: anonymous   Login
Location: Unspecified
(0.0000°N, 0.0000°E)
Time: 19:34:36
(UTC+01:00)
Language:

Milstar 3 Cent rocket - Orbit

View from above orbital plane
View from above orbital plane
View from above satellite
View from above satellite

Ground track
Ground track

The orbit data is extracted from the following two-line orbital elements,

1 25725U 99023B   18040.44269304 0.00000000  00000-0  00000-0 0    02
2 25725  28.3680 225.6544 2358613 310.0910  49.9085  9.67256830    01
Epoch (UTC): 09 February 2018 10:37:28
Eccentricity: 0.2358613
inclination: 28.3680°
perigee height: 732 km
apogee height: 5121 km
right ascension of ascending node: 225.6544°
argument of perigee: 310.0910°
revolutions per day: 9.67256830
mean anomaly at epoch: 49.9085°
orbit number at epoch: 0

The dashed part of the orbit path shows where the satellite is in the earth's shadow,  

DLR